Find Starlink 31126

NORAD ID: 58675 Int'l Des: 2023-211 Owner: SPXS Country: US Constellation: starlink operational
LEOCIRCULAR

リアルタイム位置

3D地球を読み込み中...

Starlink 31126について

説明を読み込み中...

次回通過

Passes for default location (London). Set your location on the main map for personalized predictions.

高度履歴

Loading altitude history...

軌道要素

1 58675U 23211J 26132.26990034 .00000519 00000-0 28399-4 0 9997
2 58675 43.0036 85.7514 0001372 267.8542 92.2153 15.27573579132195
Epoch: May 12, 2026 • Age: 20 hours

現在のステータス

高度 489.4 km
速度 7.62 km/s
衛星直下点 -27.25°S, 136.37°E
打ち上げ日 Dec 29, 2023
運用期間 2.3 years
タイプ internet

技術仕様

分類 Payload
質量 730.00 kg
乾燥質量 700.00 kg
総質量 730.00 kg
長さ 0.30 m
直径 4.10 m
スパン 29.00 m
形状 Box + pan
製造者 SPXS
バスタイプ Starlink V2M
フェーズステータス In Orbit
所有者/国 SPXS/US

Most Searched